SCP
0 0 0 0 0 0 0 1 1 1 0 1 1 0 0 0 0 0 0 -0 -0 -0 -0 0 0 0 0 0 0 0 0 0
0 0 0 0 0 0 0 1 2 2 1 1 1 1 1 0 0 0 0 0 0 0 0 0 0 0 0 0 0 0 0 0
0 0 0 0 0 0 0 1 2 2 2 2 2 1 1 1 1 1 1 1 0 0 0 0 0 0 0 0 0 0 0 0
0 0 0 0 0 0 1 1 2 2 2 3 4 5 2 1 1 1 1 1 1 0 0 0 0 0 0 0 0 0 0 0
0 0 0 0 0 0 1 1 2 3 3 3 3 3 2 2 1 2 1 2 1 1 1 0 0 0 0 0 0 0 0 0
0 0 0 0 0 0 1 2 2 3 3 3 3 2 2 2 1 1 2 2 1 1 1 1 1 0 0 0 0 0 0 0
0 0 0 0 0 0 1 1 1 2 4 3 3 3 2 1 1 1 1 2 1 2 1 1 1 1 0 0 0 0 0 1
0 0 0 0 0 0 1 1 1 2 3 4 2 2 2 2 3 2 2 2 1 2 2 2 2 1 1 0 1 0 1 1
0 0 0 0 0 0 0 1 2 4 4 4 4 3 2 2 2 3 2 2 1 2 3 3 3 2 2 2 1 1 1 1
0 0 0 0 0 0 0 1 2 2 4 6 4 5 3 2 2 3 3 2 2 2 4 4 4 3 4 3 2 1 1 1
0 0 0 0 0 0 0 1 2 4 5 5 7 6 5 4 3 3 3 2 2 2 3 4 6 6 4 5 4 3 1 3
0 0 0 0 0 0 0 0 1 3 4 5 7 7 5 3 2 2 3 2 2 2 4 3 4 3 3 4 4 4 6 7
0 0 0 0 0 0 0 0 1 2 5 6 6 5 4 4 3 4 4 3 2 2 2 2 4 4 6 5 3 4 5 4
0 0 0 0 0 0 0 0 1 1 3 3 5 7 5 4 4 4 4 5 4 3 3 3 5 5 4 5 4 2 1 1
0 0 0 0 0 0 0 0 1 1 1 2 2 3 4 6 6 4 6 5 6 6 4 4 4 4 3 3 3 2 1 2
0 0 0 0 0 0 0 0 0 1 1 3 4 5 8 6 5 5 5 3 4 5 4 4 4 2 2 1 2 1 1 1
0 0 0 0 0 0 0 1 0 1 1 3 3 4 5 5 6 5 5 5 4 5 3 3 3 3 3 3 3 2 2 1
0 0 0 0 0 0 0 0 1 1 2 2 3 3 3 3 3 3 3 3 3 2 3 5 5 4 3 4 4 2 2 1
0 0 0 0 0 0 0 0 1 2 1 2 2 1 2 2 2 2 2 2 2 2 2 3 4 4 3 4 3 2 2 1
0 0 0 0 0 0 0 0 0 1 0 1 2 3 3 2 2 2 1 1 1 1 1 2 2 2 3 3 3 2 1 1
Wind_Speed_500mb
29 26 33 37 41 39 43 45 46 47 46 44 48 48 51 58 60 62 62 45 40 43 31 44 41 38 33 29 26 22 18 18
37 33 31 37 41 43 46 48 48 55 47 47 43 46 48 49 58 64 53 54 48 41 33 29 39 30 32 26 20 24 24 25
39 35 31 34 43 46 49 51 52 53 62 50 50 50 50 49 52 67 64 52 55 52 44 37 30 29 29 29 27 26 23 21
37 35 37 36 44 48 50 54 58 58 61 66 67 68 54 56 52 58 75 72 67 60 61 55 47 36 30 27 25 25 23 19
29 30 28 28 42 49 53 56 56 64 66 69 69 65 66 57 58 69 75 76 74 70 64 59 51 49 44 38 36 31 29 24
31 35 32 32 29 40 46 53 58 65 63 67 63 60 68 58 54 57 78 80 76 73 68 67 55 50 44 41 36 25 24 21
28 28 33 36 40 41 43 48 51 63 71 66 58 54 57 53 52 57 62 79 79 75 68 58 62 58 50 45 39 30 27 23
33 32 35 44 46 54 55 53 63 64 60 63 53 56 56 55 61 55 54 58 72 75 66 61 68 59 47 51 47 38 29 27
37 34 34 44 52 56 65 68 71 71 64 61 61 65 59 57 58 59 56 55 67 73 66 67 66 58 55 54 53 50 37 29
46 46 43 38 50 58 65 76 73 74 75 78 63 60 55 53 51 56 62 62 61 66 74 59 59 56 63 59 59 39 34 29
52 49 47 42 40 44 55 71 83 83 82 66 59 48 49 54 56 59 67 68 65 63 73 68 54 57 44 57 56 58 38 30
57 55 49 50 46 40 41 51 71 72 67 67 70 68 64 64 56 53 55 60 72 78 74 77 73 69 57 37 36 41 46 35
37 38 39 41 42 44 43 45 50 66 67 74 72 65 59 46 47 49 51 53 57 62 70 67 64 59 54 44 35 37 48 49
29 30 34 39 41 42 43 44 46 51 63 71 74 73 66 52 51 49 45 44 50 60 64 69 69 59 57 59 55 48 49 52
26 30 37 39 43 44 40 41 46 45 56 65 71 69 61 57 52 51 48 44 44 48 58 60 59 60 59 63 69 62 75 67
34 34 38 42 45 49 42 36 44 44 50 63 66 65 60 57 50 49 51 51 48 46 49 49 51 52 57 61 61 55 57 70
35 38 40 42 43 47 46 35 36 41 48 51 56 57 58 54 55 54 48 48 45 44 44 45 47 48 51 56 66 71 66 70
36 37 38 38 38 39 46 37 29 33 40 45 48 50 51 48 50 50 44 42 47 42 47 46 44 44 46 55 59 50 57 63
37 39 38 38 39 39 35 34 30 17 27 34 37 39 43 45 48 50 52 51 49 47 38 36 35 36 39 44 51 51 51 50
38 40 42 40 40 39 37 29 23 20 17 24 24 28 32 34 40 39 36 39 38 34 34 35 35 33 33 31 31 30 27 26
Wind_Direction_500mb
277 266 244 234 226 217 212 213 206 202 203 204 204 204 207 210 210 211 211 211 212 207 210 212 212 213 215 220 222 229 241 235
266 269 254 237 228 227 219 215 214 211 206 209 206 207 205 206 206 208 204 207 211 208 206 211 215 216 214 218 226 228 241 256
263 267 266 245 236 231 225 217 217 215 211 211 206 209 209 207 207 210 207 210 211 213 211 207 213 215 223 221 224 240 251 253
264 265 264 253 243 234 225 224 223 222 221 216 224 219 213 210 209 213 215 216 218 216 220 221 222 217 220 225 236 245 244 246
263 264 275 273 255 241 232 232 223 231 234 226 226 221 216 215 212 218 222 221 222 221 221 223 225 230 234 237 237 245 246 245
268 273 277 282 274 242 241 238 225 235 234 228 222 221 225 218 216 219 224 225 224 223 226 227 220 225 231 236 245 239 248 245
275 284 286 288 277 268 243 238 232 241 238 232 221 221 220 219 220 220 228 226 226 229 229 231 232 233 234 235 237 238 241 248
276 286 290 281 282 271 263 245 245 240 229 229 221 219 221 216 218 221 220 225 226 229 226 228 234 232 231 239 239 238 240 248
275 280 286 286 276 272 265 260 251 242 229 222 218 220 218 219 217 218 218 223 226 227 226 234 241 237 235 240 242 245 239 241
275 277 273 280 280 270 267 256 250 246 240 235 224 221 220 221 218 221 228 230 229 231 231 217 238 233 236 237 246 236 237 230
279 282 274 272 280 286 274 258 245 243 237 229 223 219 219 224 221 223 229 230 229 232 234 226 225 231 229 235 236 237 228 221
280 283 279 280 280 281 278 261 251 235 230 222 218 215 219 228 226 226 227 235 228 231 233 234 233 239 230 229 230 222 208 211
302 297 295 291 289 287 282 274 253 239 227 221 223 221 225 223 226 224 227 235 234 228 233 236 227 231 239 230 222 227 225 210
313 317 316 311 306 295 283 273 263 238 225 225 218 221 222 218 222 215 213 214 227 225 226 230 237 239 234 235 237 230 229 227
333 341 336 336 332 324 298 272 260 241 226 224 223 222 222 217 214 216 211 212 215 226 225 227 232 237 237 241 246 255 255 242
315 317 326 329 334 336 326 285 261 247 231 224 218 218 215 217 221 216 213 216 221 220 222 220 226 232 240 247 247 250 259 250
333 328 319 320 327 336 336 314 271 250 238 229 221 213 210 214 213 209 208 208 210 209 220 225 229 232 234 237 239 242 241 240
321 326 334 332 329 331 342 336 300 254 239 230 223 212 204 199 204 208 201 205 205 213 222 224 225 229 232 235 242 241 241 244
320 323 326 325 330 334 331 346 330 278 238 227 217 207 202 201 206 209 214 216 219 221 219 215 216 218 221 224 228 228 231 232
315 317 320 325 324 328 333 330 343 324 251 219 210 202 197 198 199 196 200 205 207 201 202 203 202 203 204 202 198 207 205 206
Wind_Speed_850mb
29 26 33 37 41 39 43 45 46 47 46 44 48 48 51 58 60 62 62 45 40 43 31 44 41 38 33 29 26 22 18 18
37 33 31 37 41 43 46 48 48 55 47 47 43 46 48 49 58 64 53 54 48 41 33 29 39 30 32 26 20 24 24 25
39 35 31 34 43 46 49 51 52 53 62 50 50 50 50 49 52 67 64 52 55 52 44 37 30 29 29 29 27 26 23 21
37 35 37 36 44 48 50 54 58 58 61 66 67 68 54 56 52 58 75 72 67 60 61 55 47 36 30 27 25 25 23 19
29 30 28 28 42 49 53 56 56 64 66 69 69 65 66 57 58 69 75 76 74 70 64 59 51 49 44 38 36 31 29 24
31 35 32 32 29 40 46 53 58 65 63 67 63 60 68 58 54 57 78 80 76 73 68 67 55 50 44 41 36 25 24 21
28 28 33 36 40 41 43 48 51 63 71 66 58 54 57 53 52 57 62 79 79 75 68 58 62 58 50 45 39 30 27 23
33 32 35 44 46 54 55 53 63 64 60 63 53 56 56 55 61 55 54 58 72 75 66 61 68 59 47 51 47 38 29 27
37 34 34 44 52 56 65 68 71 71 64 61 61 65 59 57 58 59 56 55 67 73 66 67 66 58 55 54 53 50 37 29
46 46 43 38 50 58 65 76 73 74 75 78 63 60 55 53 51 56 62 62 61 66 74 59 59 56 63 59 59 39 34 29
52 49 47 42 40 44 55 71 83 83 82 66 59 48 49 54 56 59 67 68 65 63 73 68 54 57 44 57 56 58 38 30
57 55 49 50 46 40 41 51 71 72 67 67 70 68 64 64 56 53 55 60 72 78 74 77 73 69 57 37 36 41 46 35
37 38 39 41 42 44 43 45 50 66 67 74 72 65 59 46 47 49 51 53 57 62 70 67 64 59 54 44 35 37 48 49
29 30 34 39 41 42 43 44 46 51 63 71 74 73 66 52 51 49 45 44 50 60 64 69 69 59 57 59 55 48 49 52
26 30 37 39 43 44 40 41 46 45 56 65 71 69 61 57 52 51 48 44 44 48 58 60 59 60 59 63 69 62 75 67
34 34 38 42 45 49 42 36 44 44 50 63 66 65 60 57 50 49 51 51 48 46 49 49 51 52 57 61 61 55 57 70
35 38 40 42 43 47 46 35 36 41 48 51 56 57 58 54 55 54 48 48 45 44 44 45 47 48 51 56 66 71 66 70
36 37 38 38 38 39 46 37 29 33 40 45 48 50 51 48 50 50 44 42 47 42 47 46 44 44 46 55 59 50 57 63
37 39 38 38 39 39 35 34 30 17 27 34 37 39 43 45 48 50 52 51 49 47 38 36 35 36 39 44 51 51 51 50
38 40 42 40 40 39 37 29 23 20 17 24 24 28 32 34 40 39 36 39 38 34 34 35 35 33 33 31 31 30 27 26
Wind_Direction_850mb
277 266 244 234 226 217 212 213 206 202 203 204 204 204 207 210 210 211 211 211 212 207 210 212 212 213 215 220 222 229 241 235
266 269 254 237 228 227 219 215 214 211 206 209 206 207 205 206 206 208 204 207 211 208 206 211 215 216 214 218 226 228 241 256
263 267 266 245 236 231 225 217 217 215 211 211 206 209 209 207 207 210 207 210 211 213 211 207 213 215 223 221 224 240 251 253
264 265 264 253 243 234 225 224 223 222 221 216 224 219 213 210 209 213 215 216 218 216 220 221 222 217 220 225 236 245 244 246
263 264 275 273 255 241 232 232 223 231 234 226 226 221 216 215 212 218 222 221 222 221 221 223 225 230 234 237 237 245 246 245
268 273 277 282 274 242 241 238 225 235 234 228 222 221 225 218 216 219 224 225 224 223 226 227 220 225 231 236 245 239 248 245
275 284 286 288 277 268 243 238 232 241 238 232 221 221 220 219 220 220 228 226 226 229 229 231 232 233 234 235 237 238 241 248
276 286 290 281 282 271 263 245 245 240 229 229 221 219 221 216 218 221 220 225 226 229 226 228 234 232 231 239 239 238 240 248
275 280 286 286 276 272 265 260 251 242 229 222 218 220 218 219 217 218 218 223 226 227 226 234 241 237 235 240 242 245 239 241
275 277 273 280 280 270 267 256 250 246 240 235 224 221 220 221 218 221 228 230 229 231 231 217 238 233 236 237 246 236 237 230
279 282 274 272 280 286 274 258 245 243 237 229 223 219 219 224 221 223 229 230 229 232 234 226 225 231 229 235 236 237 228 221
280 283 279 280 280 281 278 261 251 235 230 222 218 215 219 228 226 226 227 235 228 231 233 234 233 239 230 229 230 222 208 211
302 297 295 291 289 287 282 274 253 239 227 221 223 221 225 223 226 224 227 235 234 228 233 236 227 231 239 230 222 227 225 210
313 317 316 311 306 295 283 273 263 238 225 225 218 221 222 218 222 215 213 214 227 225 226 230 237 239 234 235 237 230 229 227
333 341 336 336 332 324 298 272 260 241 226 224 223 222 222 217 214 216 211 212 215 226 225 227 232 237 237 241 246 255 255 242
315 317 326 329 334 336 326 285 261 247 231 224 218 218 215 217 221 216 213 216 221 220 222 220 226 232 240 247 247 250 259 250
333 328 319 320 327 336 336 314 271 250 238 229 221 213 210 214 213 209 208 208 210 209 220 225 229 232 234 237 239 242 241 240
321 326 334 332 329 331 342 336 300 254 239 230 223 212 204 199 204 208 201 205 205 213 222 224 225 229 232 235 242 241 241 244
320 323 326 325 330 334 331 346 330 278 238 227 217 207 202 201 206 209 214 216 219 221 219 215 216 218 221 224 228 228 231 232
315 317 320 325 324 328 333 330 343 324 251 219 210 202 197 198 199 196 200 205 207 201 202 203 202 203 204 202 198 207 205 206